Weather History for Reno - Stead, NV

Change the Weather History Date:

Tuesday, March 5, 2013

  Actual Average (KRNO) Record (KRNO)
Temperature  
Mean Temperature 45 °F 44 °F  
Max Temperature 55 °F 56 °F 79 °F (1972)
Min Temperature 35 °F 32 °F 10 °F (1976)
Degree Days  
Heating Degree Days 20 21  
Month to date heating degree days 107  
Since 1 July heating degree days 3745  
Cooling Degree Days 0 0  
Month to date cooling degree days 0  
Year to date cooling degree days 0  
Moisture  
Dew Point 25 °F    
Average Humidity 46    
Maximum Humidity 75    
Minimum Humidity 29    
Precipitation  
Precipitation 0.00 in 0.04 in 0.44 in (1994)
Month to date precipitation 0.18  
Year to date precipitation 2.23  
Snow  
Snow 0.00 in 0.10 in 2.30 in (1971)
Month to date snowfall 0.6  
Since 1 July snowfall 19.6  
Snow Depth -    
Sea Level Pressure  
Sea Level Pressure 29.89 in    
Wind  
Wind Speed 12 mph (SW)    
Max Wind Speed 29 mph    
Max Gust Speed 38 mph    
Visibility 10 miles    
Events      
T = Trace of Precipitation, MM = Missing Value Source: NWS Daily Summary

Daily Weather History Graph

Daily Weather History Graph

Search for Another Location

Airport:

Trip Planner

Search our weather history database for the weather conditions in past years. The results will help you decide how hot, cold, wet, or windy it might be!

Date:

Astronomy

Mar. 05, 2013 Rise Set
Actual Time 6:26 AM PST 5:56 PM PST
Civil Twilight 5:59 AM PST 6:23 PM PST
Nautical Twilight 5:27 AM PST 6:54 PM PST
Astronomical Twilight 4:56 AM PST 7:25 PM PST
Moon 1:42 AM PST (3/5) 11:41 AM PST (3/5)
Length of Visible Light 12h 24m
Length of Day
11h 30m
Last Quarter, 39% of the Moon is Illuminated
Mar 5
Last Quarter
Mar 11
New
Mar 19
First Quarter
Mar 27
Full
Apr 2
Last Quarter

Hourly Weather History & Observations

Time (PST) Temp. Windchill Dew Point Humidity Pressure Visibility Wind Dir Wind Speed Gust Speed Precip Events Conditions
12:15 AM 37.4 °F 33.8 °F 30.2 °F 75% 30.04 in 10.0 mi North 4.6 mph - N/A   Clear
12:30 AM 41.0 °F 35.8 °F 28.4 °F 61% 30.04 in 10.0 mi SW 8.1 mph - N/A   Clear
12:50 AM 41.0 °F 35.8 °F 28.4 °F 61% 30.03 in 10.0 mi SW 8.1 mph - N/A   Clear
1:10 AM 39.2 °F 34.2 °F 28.4 °F 65% 30.03 in 10.0 mi WSW 6.9 mph - N/A   Clear
1:30 AM 41.0 °F 34.3 °F 28.4 °F 61% 30.03 in 10.0 mi WNW 11.5 mph 16.1 mph N/A   Clear
1:55 AM 39.2 °F 35.0 °F 28.4 °F 65% 30.02 in 10.0 mi NW 5.8 mph - N/A   Clear
2:10 AM 41.0 °F 39.0 °F 26.6 °F 57% 30.02 in 10.0 mi WSW 3.5 mph - N/A   Clear
2:55 AM 39.2 °F 37.0 °F 26.6 °F 61% 30.00 in 10.0 mi NNW 3.5 mph - N/A   Clear
3:10 AM 41.0 °F 36.4 °F 26.6 °F 57% 30.00 in 10.0 mi WNW 6.9 mph - N/A   Clear
3:30 AM 37.4 °F - 26.6 °F 65% 29.99 in 10.0 mi Calm Calm - N/A   Clear
3:55 AM 41.0 °F 36.4 °F 26.6 °F 57% 29.99 in 10.0 mi South 6.9 mph - N/A   Clear
4:15 AM 41.0 °F 33.9 °F 26.6 °F 57% 30.00 in 10.0 mi SW 12.7 mph - N/A   Clear
4:50 AM 35.6 °F 29.9 °F 26.6 °F 70% 30.00 in 10.0 mi WNW 6.9 mph - N/A   Clear
5:10 AM 35.6 °F 29.2 °F 26.6 °F 70% 30.00 in 10.0 mi WNW 8.1 mph - N/A   Clear
5:30 AM 37.4 °F 32.8 °F 26.6 °F 65% 30.00 in 10.0 mi West 5.8 mph - N/A   Clear
5:50 AM 39.2 °F 37.0 °F 26.6 °F 61% 29.99 in 10.0 mi South 3.5 mph - N/A   Clear
6:15 AM 41.0 °F 37.1 °F 24.8 °F 53% 29.99 in 10.0 mi WSW 5.8 mph - N/A   Partly Cloudy
6:35 AM 39.2 °F 33.0 °F 24.8 °F 56% 29.98 in 10.0 mi WSW 9.2 mph - N/A   Clear
6:50 AM 39.2 °F - 24.8 °F 56% 29.98 in 10.0 mi Calm Calm - N/A   Clear
7:10 AM 39.2 °F - 26.6 °F 61% 29.99 in 10.0 mi Calm Calm - N/A   Mostly Cloudy
7:50 AM 44.6 °F 37.8 °F 26.6 °F 49% 29.98 in 10.0 mi SSW 15.0 mph 20.7 mph N/A   Overcast
8:10 AM 46.4 °F 40.1 °F 26.6 °F 46% 29.98 in 10.0 mi SSW 15.0 mph 24.2 mph N/A   Overcast
8:30 AM 46.4 °F 39.0 °F 26.6 °F 46% 29.98 in 10.0 mi South 19.6 mph 23.0 mph N/A   Overcast
8:50 AM 46.4 °F 39.8 °F 26.6 °F 46% 29.98 in 10.0 mi SSW 16.1 mph 24.2 mph N/A   Mostly Cloudy
9:10 AM 48.2 °F - 26.6 °F 43% 29.97 in 10.0 mi SW 15.0 mph 24.2 mph N/A   Overcast
9:30 AM 48.2 °F - 26.6 °F 43% 29.96 in 10.0 mi SSW 20.7 mph 34.5 mph N/A   Mostly Cloudy
9:50 AM 50.0 °F - 26.6 °F 40% 29.96 in 10.0 mi SW 20.7 mph 32.2 mph N/A   Scattered Clouds
10:10 AM 50.0 °F - 26.6 °F 40% 29.95 in 10.0 mi SW 19.6 mph 29.9 mph N/A   Partly Cloudy
10:50 AM 51.8 °F - 24.8 °F 35% 29.93 in 10.0 mi SSW 16.1 mph 35.7 mph N/A   Clear
11:10 AM 53.6 °F - 24.8 °F 33% 29.93 in 10.0 mi SW 18.4 mph 31.1 mph N/A   Clear
11:30 AM 53.6 °F - 23.0 °F 30% 29.91 in 10.0 mi WSW 25.3 mph 33.4 mph N/A   Clear
11:50 AM 55.4 °F - 23.0 °F 29% 29.91 in 10.0 mi SW 20.7 mph 28.8 mph N/A   Clear
12:10 PM 55.4 °F - 23.0 °F 29% 29.89 in 10.0 mi SW 28.8 mph 38.0 mph N/A   Partly Cloudy
12:35 PM 55.4 °F - 23.0 °F 29% 29.88 in 10.0 mi SSW 25.3 mph 36.8 mph N/A   Partly Cloudy
12:50 PM 55.4 °F - 23.0 °F 29% 29.87 in 10.0 mi SW 23.0 mph 32.2 mph N/A   Clear
1:10 PM 55.4 °F - 23.0 °F 29% 29.86 in 10.0 mi SSW 23.0 mph 32.2 mph N/A   Clear
1:30 PM 55.4 °F - 23.0 °F 29% 29.85 in 10.0 mi SW 27.6 mph 35.7 mph N/A   Clear
1:50 PM 53.6 °F - 23.0 °F 30% 29.84 in 10.0 mi SSW 26.5 mph 35.7 mph N/A   Clear
2:10 PM 53.6 °F - 23.0 °F 30% 29.84 in 10.0 mi SW 24.2 mph 33.4 mph N/A   Partly Cloudy
2:30 PM 53.6 °F - 24.8 °F 33% 29.84 in 10.0 mi SSW 19.6 mph 31.1 mph N/A   Partly Cloudy
2:55 PM 53.6 °F - 24.8 °F 33% 29.83 in 10.0 mi SSW 19.6 mph 28.8 mph N/A   Scattered Clouds
3:10 PM 53.6 °F - 23.0 °F 30% 29.83 in 10.0 mi SW 21.9 mph 29.9 mph N/A   Partly Cloudy
3:30 PM 53.6 °F - 23.0 °F 30% 29.82 in 10.0 mi SW 23.0 mph 32.2 mph N/A   Partly Cloudy
3:50 PM 50.0 °F - 23.0 °F 35% 29.82 in 10.0 mi SW 18.4 mph 24.2 mph N/A   Clear
4:10 PM 50.0 °F - 23.0 °F 35% 29.82 in 10.0 mi SW 23.0 mph 36.8 mph N/A   Clear
4:30 PM 48.2 °F - 23.0 °F 37% 29.82 in 10.0 mi SW 20.7 mph 29.9 mph N/A   Partly Cloudy
4:50 PM 48.2 °F - 23.0 °F 37% 29.82 in 10.0 mi SW 18.4 mph 28.8 mph N/A   Partly Cloudy
5:10 PM 48.2 °F - 24.8 °F 40% 29.82 in 10.0 mi SW 18.4 mph 26.5 mph N/A   Mostly Cloudy
5:30 PM 46.4 °F 39.0 °F 24.8 °F 43% 29.83 in 10.0 mi SW 19.6 mph 26.5 mph N/A   Mostly Cloudy
5:50 PM 46.4 °F 40.4 °F 24.8 °F 43% 29.83 in 10.0 mi WSW 13.8 mph 25.3 mph N/A   Mostly Cloudy
6:10 PM 44.6 °F 37.2 °F 24.8 °F 46% 29.83 in 10.0 mi SW 17.3 mph 24.2 mph N/A   Mostly Cloudy
6:30 PM 44.6 °F 35.9 °F 23.0 °F 43% 29.82 in 10.0 mi SW 23.0 mph 33.4 mph N/A   Partly Cloudy
6:50 PM 44.6 °F 36.6 °F 24.8 °F 46% 29.82 in 10.0 mi SW 19.6 mph 27.6 mph N/A   Clear
7:15 PM 44.6 °F 37.4 °F 24.8 °F 46% 29.80 in 10.0 mi SW 16.1 mph 23.0 mph N/A   Clear
7:30 PM 42.8 °F 38.0 °F 24.8 °F 49% 29.80 in 10.0 mi SSW 8.1 mph - N/A   Clear
7:55 PM 41.0 °F 38.0 °F 24.8 °F 53% 29.79 in 10.0 mi ENE 4.6 mph - N/A   Partly Cloudy
8:10 PM 39.2 °F 35.9 °F 23.0 °F 52% 29.78 in 10.0 mi NNE 4.6 mph - N/A   Partly Cloudy
8:30 PM 39.2 °F 35.9 °F 23.0 °F 52% 29.78 in 10.0 mi North 4.6 mph - N/A   Partly Cloudy
8:50 PM 39.2 °F 37.0 °F 23.0 °F 52% 29.78 in 10.0 mi East 3.5 mph - N/A   Scattered Clouds
9:10 PM 39.2 °F 37.0 °F 23.0 °F 52% 29.78 in 10.0 mi West 3.5 mph - N/A   Scattered Clouds
9:30 PM 44.6 °F 39.2 °F 21.2 °F 39% 29.77 in 10.0 mi SSW 10.4 mph 21.9 mph N/A   Scattered Clouds
9:50 PM 44.6 °F 37.4 °F 19.4 °F 37% 29.78 in 10.0 mi SW 16.1 mph 21.9 mph N/A   Mostly Cloudy
10:10 PM 44.6 °F 37.8 °F 19.4 °F 37% 29.78 in 10.0 mi SW 15.0 mph 31.1 mph N/A   Mostly Cloudy
10:30 PM 42.8 °F 35.1 °F 21.2 °F 42% 29.75 in 10.0 mi SSW 16.1 mph 24.2 mph N/A   Mostly Cloudy
10:50 PM 44.6 °F 36.9 °F 21.2 °F 39% 29.74 in 10.0 mi South 18.4 mph 28.8 mph N/A   Overcast
11:10 PM 44.6 °F 37.8 °F 21.2 °F 39% 29.74 in 10.0 mi South 15.0 mph 27.6 mph N/A   Overcast
11:35 PM 44.6 °F 36.1 °F 24.8 °F 46% 29.73 in 10.0 mi South 21.9 mph 31.1 mph N/A   Overcast
11:50 PM 44.6 °F 36.1 °F 24.8 °F 46% 29.73 in 10.0 mi South 21.9 mph 38.0 mph N/A   Overcast